Date,TemperatureHighF,TemperatureAvgF,TemperatureLowF,DewpointHighF,DewpointAvgF,DewpointLowF,HumidityHigh,HumidityAvg,HumidityLow,PressureMaxIn,PressureMinIn,WindSpeedMaxMPH,WindSpeedAvgMPH,GustSpeedMaxMPH,PrecipitationSumIn
2013-3-1,42.4,39.3,37.2,40.6,36.3,33.4,99,89,75,30.36,30.31,9,4,18,0.00
2013-3-2,41.9,38.4,36.5,35.1,33.9,32.7,91,84,72,30.35,30.26,5,2,11,0.00
2013-3-3,44.8,40.8,36.3,44.3,38.3,34.2,99,91,81,30.27,30.19,6,3,13,0.00
2013-3-4,56.1,42.4,32.5,39.1,34.9,31.8,98,77,52,30.19,29.86,4,3,16,0.00
2013-3-5,66.4,48.7,35.2,40.6,35.6,30.3,90,65,30,29.86,29.67,7,3,19,0.00
2013-3-6,61.9,51.6,42.6,47.4,41.0,36.7,80,68,48,29.67,29.54,6,2,11,0.00
2013-3-7,54.9,49.6,45.1,46.3,41.8,38.7,97,75,59,29.55,29.45,6,4,13,0.01
2013-3-8,59.0,51.0,46.8,52.0,48.6,45.2,99,92,78,29.48,29.45,7,5,15,0.02
2013-3-9,46.4,42.4,36.1,46.1,42.2,35.3,99,99,99,29.53,29.42,12,5,21,0.74
2013-3-10,35.6,33.6,31.6,35.3,31.5,24.6,99,92,75,29.74,29.52,15,8,26,0.07
2013-3-11,31.8,30.1,28.2,27.2,24.9,23.4,89,81,72,29.78,29.74,16,12,34,0.00
2013-3-12,35.6,29.4,25.3,23.8,20.2,15.4,87,70,47,29.78,29.71,18,12,35,0.00
2013-3-13,45.0,33.3,22.5,36.6,29.1,19.0,99,85,67,29.81,29.68,8,3,15,0.01
2013-3-14,43.7,34.5,27.9,32.7,27.9,22.3,99,79,45,29.99,29.79,7,3,15,0.00
2013-3-15,39.7,34.6,26.8,36.8,32.5,26.1,99,92,81,29.97,29.79,6,3,21,0.04
2013-3-16,46.8,42.2,38.5,37.3,33.1,28.4,89,71,54,29.79,29.52,14,7,29,0.04
2013-3-17,51.1,44.5,39.9,43.5,40.5,32.3,99,86,68,29.52,29.24,10,5,33,0.02
2013-3-18,52.0,43.7,38.5,44.5,40.6,38.2,99,90,63,29.32,29.22,6,2,24,0.06
2013-3-19,46.4,40.4,35.2,43.4,39.0,35.0,99,95,85,29.56,29.32,6,2,11,0.05
2013-3-20,38.3,35.7,33.4,37.0,32.5,28.6,97,88,79,29.97,29.55,12,6,24,0.00
2013-3-21,45.9,36.4,30.0,39.0,31.2,28.5,98,82,56,30.12,29.98,6,2,11,0.00
2013-3-22,42.8,34.8,28.0,31.4,29.0,25.5,99,81,61,30.12,29.94,14,8,32,0.00
2013-3-23,38.1,33.8,30.0,26.6,21.8,13.4,78,62,47,30.00,29.93,15,12,32,0.00
2013-3-24,38.3,32.2,27.3,13.7,5.7,-5.5,52,36,18,30.02,29.95,16,12,30,0.00
2013-3-25,43.3,34.9,28.9,17.2,14.1,8.1,59,45,26,30.02,29.92,17,11,32,0.00
2013-3-26,45.7,35.4,27.1,19.6,15.7,8.7,70,48,25,29.98,29.89,12,8,29,0.00
2013-3-27,47.5,35.5,25.2,23.6,18.6,10.9,88,55,26,29.93,29.82,9,5,22,0.00
2013-3-28,41.9,33.7,27.1,29.5,23.4,19.2,89,67,49,29.87,29.81,13,7,24,0.00
2013-3-29,41.9,33.3,26.4,32.1,28.8,25.9,99,85,56,29.85,29.78,6,2,13,0.00
2013-3-30,42.3,34.3,27.7,34.5,29.4,27.4,99,84,59,29.91,29.77,10,3,18,0.00
2013-3-31,45.1,35.8,28.9,33.4,29.4,25.5,98,79,51,29.96,29.91,10,4,18,0.00